Time,TemperatureF,DewpointF,PressureIn,WindDirection,WindDirectionDegrees,WindSpeedMPH,WindSpeedGustMPH,Humidity,HourlyPrecipIn,Conditions,Clouds,dailyrainin,SoftwareType,DateUTC
2013-07-21 00:05:00,73.8,71.0,29.78,NW,319,0.0,0.0,90,0.00,,,0.00,weatherlink.com 1.10,2013-07-21 04:05:00,
2013-07-21 00:20:00,73.6,71.0,29.78,NW,319,0.0,0.0,91,0.00,,,0.00,weatherlink.com 1.10,2013-07-21 04:20:00,
2013-07-21 00:35:00,73.8,71.0,29.79,NW,319,0.0,1.0,92,0.00,,,0.00,weatherlink.com 1.10,2013-07-21 04:35:00,
2013-07-21 00:50:00,74.0,72.0,29.79,NW,319,0.0,0.0,93,0.00,,,0.00,weatherlink.com 1.10,2013-07-21 04:50:00,
2013-07-21 01:05:00,74.1,72.0,29.79,NW,319,0.0,1.0,93,0.00,,,0.00,weatherlink.com 1.10,2013-07-21 05:05:00,
2013-07-21 01:20:00,74.2,72.0,29.79,NW,319,0.0,0.0,92,0.00,,,0.00,weatherlink.com 1.10,2013-07-21 05:20:00,
2013-07-21 01:35:00,74.2,72.0,29.80,NW,319,0.0,0.0,93,0.00,,,0.00,weatherlink.com 1.10,2013-07-21 05:35:00,
2013-07-21 01:50:00,74.1,72.0,29.80,NW,319,0.0,0.0,92,0.00,,,0.00,weatherlink.com 1.10,2013-07-21 05:50:00,
2013-07-21 02:05:00,74.0,72.0,29.80,NW,319,0.0,0.0,93,0.00,,,0.00,weatherlink.com 1.10,2013-07-21 06:05:00,
2013-07-21 02:20:00,74.2,72.0,29.81,NW,319,0.0,0.0,93,0.00,,,0.00,weatherlink.com 1.10,2013-07-21 06:20:00,
2013-07-21 02:35:00,74.2,71.0,29.80,NW,319,0.0,0.0,90,0.00,,,0.00,weatherlink.com 1.10,2013-07-21 06:35:00,
2013-07-21 02:50:00,74.4,71.0,29.80,NW,319,0.0,0.0,88,0.00,,,0.00,weatherlink.com 1.10,2013-07-21 06:50:00,
2013-07-21 03:05:00,74.3,70.0,29.81,NW,319,0.0,0.0,85,0.00,,,0.00,weatherlink.com 1.10,2013-07-21 07:05:00,
2013-07-21 03:20:00,74.3,69.0,29.81,NW,319,0.0,0.0,83,0.00,,,0.00,weatherlink.com 1.10,2013-07-21 07:20:00,
2013-07-21 03:35:00,74.2,68.0,29.81,NW,319,0.0,0.0,82,0.00,,,0.00,weatherlink.com 1.10,2013-07-21 07:35:00,
2013-07-21 03:50:00,74.0,68.0,29.81,NW,319,0.0,0.0,82,0.00,,,0.00,weatherlink.com 1.10,2013-07-21 07:50:00,
2013-07-21 04:05:00,73.8,68.0,29.81,NW,319,0.0,0.0,81,0.00,,,0.00,weatherlink.com 1.10,2013-07-21 08:05:00,
2013-07-21 04:20:00,73.7,68.0,29.82,NW,319,0.0,0.0,81,0.00,,,0.00,weatherlink.com 1.10,2013-07-21 08:20:00,
2013-07-21 04:35:00,73.5,67.0,29.83,NW,319,0.0,0.0,80,0.00,,,0.00,weatherlink.com 1.10,2013-07-21 08:35:00,
2013-07-21 04:50:00,73.5,67.0,29.83,NW,319,0.0,0.0,81,0.00,,,0.00,weatherlink.com 1.10,2013-07-21 08:50:00,
2013-07-21 05:06:00,73.2,68.0,29.84,NW,319,0.0,0.0,84,0.00,,,0.00,weatherlink.com 1.10,2013-07-21 09:06:00,
2013-07-21 05:21:00,72.7,68.0,29.84,NW,319,0.0,0.0,85,0.00,,,0.00,weatherlink.com 1.10,2013-07-21 09:21:00,
2013-07-21 05:36:00,72.2,68.0,29.84,NW,319,0.0,0.0,87,0.00,,,0.00,weatherlink.com 1.10,2013-07-21 09:36:00,
2013-07-21 05:51:00,72.0,68.0,29.84,NW,319,0.0,0.0,88,0.00,,,0.00,weatherlink.com 1.10,2013-07-21 09:51:00,
2013-07-21 06:06:00,71.9,69.0,29.85,NW,319,0.0,0.0,89,0.00,,,0.00,weatherlink.com 1.10,2013-07-21 10:06:00,
2013-07-21 06:21:00,71.7,68.0,29.86,NW,319,0.0,0.0,89,0.00,,,0.00,weatherlink.com 1.10,2013-07-21 10:21:00,
2013-07-21 06:36:00,71.4,68.0,29.86,NW,319,0.0,0.0,89,0.00,,,0.00,weatherlink.com 1.10,2013-07-21 10:36:00,
2013-07-21 06:51:00,71.6,68.0,29.86,NW,319,0.0,0.0,89,0.00,,,0.00,weatherlink.com 1.10,2013-07-21 10:51:00,
2013-07-21 07:06:00,72.0,69.0,29.88,NW,319,0.0,0.0,89,0.00,,,0.00,weatherlink.com 1.10,2013-07-21 11:06:00,
2013-07-21 07:21:00,72.0,69.0,29.88,NW,319,0.0,0.0,90,0.00,,,0.00,weatherlink.com 1.10,2013-07-21 11:21:00,
2013-07-21 07:36:00,72.1,69.0,29.88,NW,319,0.0,0.0,89,0.00,,,0.00,weatherlink.com 1.10,2013-07-21 11:36:00,
2013-07-21 07:51:00,72.2,69.0,29.88,NW,319,0.0,0.0,88,0.00,,,0.00,weatherlink.com 1.10,2013-07-21 11:51:00,
2013-07-21 08:06:00,73.2,69.0,29.89,NNE,25,0.0,0.0,86,0.00,,,0.00,weatherlink.com 1.10,2013-07-21 12:06:00,
2013-07-21 08:21:00,75.4,69.0,29.89,NNE,22,0.0,0.0,79,0.00,,,0.00,weatherlink.com 1.10,2013-07-21 12:21:00,
2013-07-21 08:36:00,77.1,68.0,29.89,NNW,338,0.0,0.0,74,0.00,,,0.00,weatherlink.com 1.10,2013-07-21 12:36:00,
2013-07-21 08:51:00,76.6,69.0,29.91,NW,321,0.0,0.0,77,0.00,,,0.00,weatherlink.com 1.10,2013-07-21 12:51:00,
2013-07-21 09:06:00,74.8,69.0,29.91,NW,321,0.0,0.0,83,0.01,,,0.01,weatherlink.com 1.10,2013-07-21 13:06:00,
2013-07-21 09:21:00,73.7,69.0,29.91,NW,321,0.0,0.0,86,0.01,,,0.01,weatherlink.com 1.10,2013-07-21 13:21:00,
2013-07-21 09:36:00,73.9,70.0,29.91,NW,321,0.0,0.0,87,0.01,,,0.01,weatherlink.com 1.10,2013-07-21 13:36:00,
2013-07-21 09:51:00,74.2,70.0,29.90,ENE,62,0.0,0.0,87,0.01,,,0.01,weatherlink.com 1.10,2013-07-21 13:51:00,
2013-07-21 10:06:00,75.0,70.0,29.91,ENE,63,0.0,0.0,84,0.00,,,0.01,weatherlink.com 1.10,2013-07-21 14:06:00,
2013-07-21 10:21:00,75.7,70.0,29.91,ENE,64,0.0,0.0,83,0.00,,,0.01,weatherlink.com 1.10,2013-07-21 14:21:00,
2013-07-21 10:36:00,76.5,70.0,29.91,NE,54,0.0,0.0,80,0.00,,,0.01,weatherlink.com 1.10,2013-07-21 14:36:00,
2013-07-21 10:51:00,76.3,69.0,29.92,NE,56,0.0,0.0,79,0.00,,,0.01,weatherlink.com 1.10,2013-07-21 14:51:00,
2013-07-21 11:06:00,75.8,70.0,29.93,ENE,62,0.0,0.0,83,0.00,,,0.01,weatherlink.com 1.10,2013-07-21 15:06:00,
2013-07-21 11:21:00,76.3,69.0,29.92,SE,132,0.0,3.0,78,0.00,,,0.01,weatherlink.com 1.10,2013-07-21 15:21:00,
2013-07-21 11:36:00,77.0,69.0,29.92,ENE,65,0.0,3.0,76,0.00,,,0.01,weatherlink.com 1.10,2013-07-21 15:36:00,
2013-07-21 11:51:00,78.3,70.0,29.92,NW,321,0.0,1.0,75,0.00,,,0.01,weatherlink.com 1.10,2013-07-21 15:51:00,
2013-07-21 12:06:00,78.6,69.0,29.92,WNW,285,0.0,2.0,73,0.00,,,0.01,weatherlink.com 1.10,2013-07-21 16:06:00,
2013-07-21 12:21:00,79.0,69.0,29.93,SE,133,0.0,3.0,71,0.00,,,0.01,weatherlink.com 1.10,2013-07-21 16:21:00,
2013-07-21 12:36:00,80.7,71.0,29.92,SW,226,1.0,5.0,71,0.00,,,0.01,weatherlink.com 1.10,2013-07-21 16:36:00,
2013-07-21 12:51:00,79.3,70.0,29.92,South,187,0.0,3.0,73,0.00,,,0.01,weatherlink.com 1.10,2013-07-21 16:51:00,
2013-07-21 13:06:00,80.3,70.0,29.92,SW,217,0.0,1.0,71,0.00,,,0.01,weatherlink.com 1.10,2013-07-21 17:06:00,
2013-07-21 13:21:00,81.5,71.0,29.92,SSW,199,0.0,1.0,71,0.00,,,0.01,weatherlink.com 1.10,2013-07-21 17:21:00,
2013-07-21 13:36:00,81.5,70.0,29.92,West,281,0.0,1.0,69,0.00,,,0.01,weatherlink.com 1.10,2013-07-21 17:36:00,
2013-07-21 13:51:00,84.1,72.0,29.92,ENE,65,0.0,1.0,66,0.00,,,0.01,weatherlink.com 1.10,2013-07-21 17:51:00,
2013-07-21 14:06:00,84.6,70.0,29.92,WNW,293,0.0,1.0,61,0.00,,,0.01,weatherlink.com 1.10,2013-07-21 18:06:00,
2013-07-21 14:21:00,82.8,70.0,29.92,SE,139,0.0,1.0,66,0.00,,,0.01,weatherlink.com 1.10,2013-07-21 18:21:00,
2013-07-21 14:36:00,85.0,72.0,29.92,East,79,1.0,5.0,65,0.00,,,0.01,weatherlink.com 1.10,2013-07-21 18:36:00,
2013-07-21 14:52:00,86.1,72.0,29.92,ESE,110,4.0,6.0,63,0.00,,,0.01,weatherlink.com 1.10,2013-07-21 18:52:00,
2013-07-21 15:07:00,85.2,71.0,29.92,ESE,103,0.0,4.0,63,0.00,,,0.01,weatherlink.com 1.10,2013-07-21 19:07:00,
2013-07-21 15:22:00,84.4,71.0,29.92,SSE,155,0.0,2.0,64,0.00,,,0.01,weatherlink.com 1.10,2013-07-21 19:22:00,
2013-07-21 15:37:00,83.1,69.0,29.92,SSE,167,0.0,4.0,63,0.00,,,0.01,weatherlink.com 1.10,2013-07-21 19:37:00,
2013-07-21 15:52:00,82.6,70.0,29.92,SSW,204,0.0,4.0,66,0.00,,,0.01,weatherlink.com 1.10,2013-07-21 19:52:00,
2013-07-21 16:07:00,82.2,71.0,29.92,East,95,0.0,4.0,69,0.00,,,0.01,weatherlink.com 1.10,2013-07-21 20:07:00,
2013-07-21 16:22:00,82.3,70.0,29.92,SE,129,1.0,5.0,66,0.00,,,0.01,weatherlink.com 1.10,2013-07-21 20:22:00,
2013-07-21 16:37:00,82.4,69.0,29.92,SW,218,0.0,5.0,65,0.00,,,0.01,weatherlink.com 1.10,2013-07-21 20:37:00,
2013-07-21 16:52:00,83.2,69.0,29.91,SSW,209,1.0,5.0,63,0.00,,,0.01,weatherlink.com 1.10,2013-07-21 20:52:00,
2013-07-21 17:07:00,82.8,69.0,29.91,SSW,204,0.0,4.0,64,0.00,,,0.01,weatherlink.com 1.10,2013-07-21 21:07:00,
2013-07-21 17:22:00,82.5,69.0,29.92,SW,217,0.0,4.0,64,0.00,,,0.01,weatherlink.com 1.10,2013-07-21 21:22:00,
2013-07-21 17:37:00,82.0,68.0,29.91,SW,226,0.0,5.0,62,0.00,,,0.01,weatherlink.com 1.10,2013-07-21 21:37:00,
2013-07-21 17:52:00,81.3,68.0,29.91,SSW,204,0.0,4.0,65,0.00,,,0.01,weatherlink.com 1.10,2013-07-21 21:52:00,
2013-07-21 18:07:00,80.9,68.0,29.90,SSW,213,0.0,4.0,65,0.00,,,0.01,weatherlink.com 1.10,2013-07-21 22:07:00,
2013-07-21 18:22:00,79.8,68.0,29.91,South,185,0.0,3.0,67,0.00,,,0.01,weatherlink.com 1.10,2013-07-21 22:22:00,
2013-07-21 18:37:00,78.9,67.0,29.91,SE,143,0.0,2.0,66,0.00,,,0.01,weatherlink.com 1.10,2013-07-21 22:37:00,
2013-07-21 18:52:00,77.8,66.0,29.91,South,189,0.0,4.0,68,0.00,,,0.01,weatherlink.com 1.10,2013-07-21 22:52:00,
2013-07-21 19:07:00,76.9,66.0,29.92,SSW,199,0.0,3.0,70,0.00,,,0.01,weatherlink.com 1.10,2013-07-21 23:07:00,
2013-07-21 19:22:00,76.0,67.0,29.91,SSW,205,0.0,2.0,73,0.00,,,0.01,weatherlink.com 1.10,2013-07-21 23:22:00,
2013-07-21 19:37:00,75.2,67.0,29.91,SSW,205,0.0,0.0,75,0.00,,,0.01,weatherlink.com 1.10,2013-07-21 23:37:00,
2013-07-21 19:52:00,74.3,67.0,29.92,SSW,205,0.0,1.0,78,0.00,,,0.01,weatherlink.com 1.10,2013-07-21 23:52:00,
2013-07-21 20:07:00,73.6,67.0,29.92,SSW,205,0.0,1.0,80,0.00,,,0.01,weatherlink.com 1.10,2013-07-22 00:07:00,
2013-07-21 20:22:00,73.1,67.0,29.92,SSW,205,0.0,0.0,82,0.00,,,0.01,weatherlink.com 1.10,2013-07-22 00:22:00,
2013-07-21 20:37:00,72.5,67.0,29.93,SSW,203,0.0,1.0,83,0.00,,,0.01,weatherlink.com 1.10,2013-07-22 00:37:00,
2013-07-21 20:52:00,71.9,67.0,29.94,SSW,203,0.0,1.0,85,0.00,,,0.01,weatherlink.com 1.10,2013-07-22 00:52:00,
2013-07-21 21:07:00,71.5,68.0,29.94,SSW,203,0.0,1.0,87,0.00,,,0.01,weatherlink.com 1.10,2013-07-22 01:07:00,
2013-07-21 21:22:00,71.2,68.0,29.95,SSE,166,0.0,2.0,89,0.00,,,0.01,weatherlink.com 1.10,2013-07-22 01:22:00,
2013-07-21 21:37:00,70.9,68.0,29.96,South,186,0.0,2.0,90,0.00,,,0.01,weatherlink.com 1.10,2013-07-22 01:37:00,
2013-07-21 21:52:00,70.7,68.0,29.96,South,186,0.0,0.0,91,0.00,,,0.01,weatherlink.com 1.10,2013-07-22 01:52:00,
2013-07-21 22:07:00,70.6,68.0,29.96,South,186,0.0,1.0,91,0.00,,,0.01,weatherlink.com 1.10,2013-07-22 02:07:00,
2013-07-21 22:22:00,70.4,68.0,29.96,South,186,0.0,0.0,91,0.00,,,0.01,weatherlink.com 1.10,2013-07-22 02:22:00,
2013-07-21 22:37:00,70.2,68.0,29.96,South,186,0.0,0.0,91,0.00,,,0.01,weatherlink.com 1.10,2013-07-22 02:37:00,
2013-07-21 22:52:00,69.9,68.0,29.96,South,186,0.0,0.0,92,0.00,,,0.01,weatherlink.com 1.10,2013-07-22 02:52:00,
2013-07-21 23:07:00,69.6,67.0,29.96,South,186,0.0,0.0,92,0.00,,,0.01,weatherlink.com 1.10,2013-07-22 03:07:00,
2013-07-21 23:22:00,69.4,67.0,29.96,South,186,0.0,0.0,93,0.00,,,0.01,weatherlink.com 1.10,2013-07-22 03:22:00,
2013-07-21 23:37:00,69.1,67.0,29.96,South,186,0.0,0.0,93,0.00,,,0.01,weatherlink.com 1.10,2013-07-22 03:37:00,
2013-07-21 23:52:00,68.9,67.0,29.96,South,186,0.0,0.0,93,0.00,,,0.01,weatherlink.com 1.10,2013-07-22 03:52:00,